Location: *
(38.9800°N, 16.0500°E)
Time: 18:41:26
(UTC+00:00)

CENTAUR R/B - Pass Details

Date: 07 April 2020
Orbit: 761 x 1427 km, 63.5° (Epoch: 29 May)

Event Time Altitude Azimuth Distance (km) Brightness Sun altitude
Exits shadow 01:45:45 48° 132° (SE) 1,180 2.9 -29.8°
Maximum altitude 01:46:17 49° 115° (ESE) 1,171 3.0 -29.8°
Drops below altitude 10° 01:52:35 10° 43° (NE) 2,846 5.9 -28.8°
Sets 01:55:31 0° 38° (NE) 3,912 6.8 -28.4°
